Zurück zum Katalog

CXBN

AktivWissenschaftVLEO
NORAD 38762·PAYLOAD·🇺🇸 United States

Gestartet Sep 13, 2012 von Vandenberg Space Force Base

Loading…

Nächste Überflüge (nächste 24 Stunden)

TLE

AktuellSource: Space-Track

Epoche: Sep 14, 2026, 14:15 UTC

1 38762U 12048E   26257.59395004  .00005707  00000-0  23108-3 0  9994
2 38762  64.6590 248.2359 0075015 140.4590 220.2044 15.23171848131898

Verfolge CXBN in Echtzeit mit AllMySat

Download on the App Store